| time (UTC) | temp C | wind direction | speed KPH | gust KPH | rain 1hr cm | rain 24hr cm | rain mn cm | humidity % | barometer mb |
| 20260504040803 | 25 | 227 | 1.6 | 1.6 | 0.00 | 0.00 | 0.00 | 22 | 1011.8 |
| 20260504040301 | 25 | 286 | 1.6 | 1.6 | 0.00 | 0.00 | 0.00 | 22 | 1011.4 |
| 20260504035756 | 25 | 269 | 1.6 | 1.6 | 0.00 | 0.00 | 0.00 | 22 | 1011.4 |
| 20260504035254 | 25 | 245 | 4.8 | 8.0 | 0.00 | 0.00 | 0.00 | 21 | 1011.1 |
| 20260504034751 | 25 | 279 | 3.2 | 3.2 | 0.00 | 0.00 | 0.00 | 21 | 1011.2 |
| 20260504034248 | 25 | 267 | 1.6 | 1.6 | 0.00 | 0.00 | 0.00 | 21 | 1010.9 |
| 20260504033746 | 25 | 265 | 6.4 | 9.7 | 0.00 | 0.00 | 0.00 | 20 | 1010.9 |
| 20260504033243 | 25 | 266 | 3.2 | 3.2 | 0.00 | 0.00 | 0.00 | 20 | 1011.0 |
| 20260504032740 | 25 | 298 | 3.2 | 3.2 | 0.00 | 0.00 | 0.00 | 20 | 1010.7 |
| 20260504032237 | 25 | 275 | 4.8 | 14.5 | 0.00 | 0.00 | 0.00 | 20 | 1010.5 |
| 20260504031734 | 26 | 259 | 1.6 | 1.6 | 0.00 | 0.00 | 0.00 | 19 | 1010.5 |
| 20260504031231 | 26 | 246 | 11.3 | 12.9 | 0.00 | 0.00 | 0.00 | 19 | 1010.5 |
| 20260504030727 | 26 | 296 | 4.8 | 4.8 | 0.00 | 0.00 | 0.00 | 18 | 1010.2 |
| 20260504030225 | 26 | 280 | 3.2 | 4.8 | 0.00 | 0.00 | 0.00 | 18 | 1010.0 |
| 20260504025721 | 26 | 267 | 6.4 | 11.3 | 0.00 | 0.00 | 0.00 | 18 | 1010.2 |
| 20260504025218 | 26 | 281 | 1.6 | 1.6 | 0.00 | 0.00 | 0.00 | 17 | 1009.8 |
| 20260504024715 | 26 | 250 | 6.4 | 9.7 | 0.00 | 0.00 | 0.00 | 16 | 1009.8 |
| 20260504024211 | 27 | 287 | 1.6 | 1.6 | 0.00 | 0.00 | 0.00 | 17 | 1009.9 |
| 20260504023708 | 27 | 249 | 4.8 | 4.8 | 0.00 | 0.00 | 0.00 | 16 | 1009.6 |
| 20260504023204 | 27 | 295 | 4.8 | 8.0 | 0.00 | 0.00 | 0.00 | 16 | 1009.3 |
| 20260504022700 | 27 | 262 | 1.6 | 1.6 | 0.00 | 0.00 | 0.00 | 16 | 1009.1 |
| 20260504022156 | 27 | 279 | 6.4 | 8.0 | 0.00 | 0.00 | 0.00 | 15 | 1009.2 |
| 20260504021654 | 27 | 261 | 3.2 | 3.2 | 0.00 | 0.00 | 0.00 | 15 | 1009.2 |
| 20260504021150 | 27 | 285 | 12.9 | 14.5 | 0.00 | 0.00 | 0.00 | 14 | 1009.2 |
| 20260504020648 | 28 | 267 | 6.4 | 8.0 | 0.00 | 0.00 | 0.00 | 14 | 1009.1 |
| 20260504020143 | 28 | 251 | 6.4 | 9.7 | 0.00 | 0.00 | 0.00 | 14 | 1008.7 |
| 20260504015641 | 28 | 288 | 4.8 | 8.0 | 0.00 | 0.00 | 0.00 | 13 | 1008.5 |
| 20260504015137 | 28 | 319 | 4.8 | 8.0 | 0.00 | 0.00 | 0.00 | 13 | 1008.7 |
| 20260504014632 | 28 | 268 | 8.0 | 11.3 | 0.00 | 0.00 | 0.00 | 12 | 1008.7 |
| 20260504014130 | 28 | 271 | 6.4 | 9.7 | 0.00 | 0.00 | 0.00 | 12 | 1008.6 |
| 20260504013628 | 28 | 261 | 3.2 | 4.8 | 0.00 | 0.00 | 0.00 | 12 | 1008.6 |
| 20260504013124 | 29 | 261 | 9.7 | 11.3 | 0.00 | 0.00 | 0.00 | 12 | 1008.5 |
| 20260504012621 | 30 | 245 | 14.5 | 17.7 | 0.00 | 0.00 | 0.00 | 11 | 1008.5 |
| 20260504012120 | 30 | 280 | 6.4 | 9.7 | 0.00 | 0.00 | 0.00 | 12 | 1008.3 |
| 20260504011616 | 30 | 262 | 11.3 | 17.7 | 0.00 | 0.00 | 0.00 | 12 | 1008.4 |
| 20260504011112 | 30 | 250 | 8.0 | 11.3 | 0.00 | 0.00 | 0.00 | 12 | 1008.5 |
| 20260504010608 | 30 | 222 | 11.3 | 16.1 | 0.00 | 0.00 | 0.00 | 12 | 1008.9 |
| 20260504010104 | 30 | 259 | 14.5 | 17.7 | 0.00 | 0.00 | 0.00 | 12 | 1008.6 |
| 20260504005601 | 30 | 256 | 12.9 | 14.5 | 0.00 | 0.00 | 0.00 | 11 | 1008.9 |
| 20260504005058 | 30 | 246 | 12.9 | 16.1 | 0.00 | 0.00 | 0.00 | 11 | 1008.8 |
| 20260504004556 | 30 | 253 | 17.7 | 24.1 | 0.00 | 0.00 | 0.00 | 11 | 1009.0 |
| 20260504004053 | 30 | 227 | 11.3 | 12.9 | 0.00 | 0.00 | 0.00 | 11 | 1008.7 |
| 20260504003549 | 30 | 283 | 11.3 | 12.9 | 0.00 | 0.00 | 0.00 | 11 | 1008.7 |
| 20260504003046 | 30 | 249 | 11.3 | 16.1 | 0.00 | 0.00 | 0.00 | 12 | 1008.8 |
| 20260504002543 | 31 | 300 | 14.5 | 16.1 | 0.00 | 0.00 | 0.00 | 12 | 1008.7 |
| 20260504002041 | 31 | 284 | 12.9 | 22.5 | 0.00 | 0.00 | 0.00 | 12 | 1008.6 |
| 20260504001538 | 31 | 239 | 19.3 | 22.5 | 0.00 | 0.00 | 0.00 | 12 | 1008.7 |
| 20260504001034 | 31 | 237 | 16.1 | 17.7 | 0.00 | 0.00 | 0.00 | 12 | 1008.6 |
| 20260504000531 | 31 | 216 | 17.7 | 22.5 | 0.00 | 0.00 | 0.00 | 12 | 1008.5 |
| 20260504000029 | 32 | 246 | 12.9 | 16.1 | 0.00 | 0.00 | 0.00 | 12 | 1008.6 |
| 20260503235527 | 32 | 255 | 9.7 | 14.5 | 0.00 | 0.00 | 0.00 | 12 | 1008.4 |
| 20260503235023 | 32 | 269 | 9.7 | 11.3 | 0.00 | 0.00 | 0.00 | 12 | 1008.6 |
| 20260503234521 | 32 | 269 | 14.5 | 16.1 | 0.00 | 0.00 | 0.00 | 12 | 1008.3 |
| 20260503234019 | 32 | 263 | 12.9 | 16.1 | 0.00 | 0.00 | 0.00 | 12 | 1008.3 |
| 20260503233515 | 32 | 232 | 8.0 | 9.7 | 0.00 | 0.00 | 0.00 | 12 | 1008.1 |
| 20260503233011 | 32 | 278 | 16.1 | 20.9 | 0.00 | 0.00 | 0.00 | 12 | 1008.4 |
| 20260503232508 | 32 | 213 | 8.0 | 9.7 | 0.00 | 0.00 | 0.00 | 12 | 1008.5 |
| 20260503232006 | 32 | 213 | 12.9 | 14.5 | 0.00 | 0.00 | 0.00 | 12 | 1008.3 |
| 20260503231504 | 32 | 197 | 4.8 | 4.8 | 0.00 | 0.00 | 0.00 | 14 | 1008.4 |
| 20260503231000 | 33 | 260 | 8.0 | 9.7 | 0.00 | 0.00 | 0.00 | 12 | 1008.2 |
| 20260503230457 | 32 | 241 | 8.0 | 11.3 | 0.00 | 0.00 | 0.00 | 14 | 1008.2 |
| 20260503225954 | 32 | 258 | 9.7 | 12.9 | 0.00 | 0.00 | 0.00 | 13 | 1008.3 |
| 20260503225451 | 32 | 199 | 11.3 | 14.5 | 0.00 | 0.00 | 0.00 | 14 | 1008.3 |
| 20260503224946 | 32 | 248 | 8.0 | 11.3 | 0.00 | 0.00 | 0.00 | 14 | 1008.4 |
| 20260503224443 | 32 | 231 | 6.4 | 9.7 | 0.00 | 0.00 | 0.00 | 13 | 1008.5 |
| 20260503223941 | 32 | 250 | 8.0 | 9.7 | 0.00 | 0.00 | 0.00 | 13 | 1008.9 |
| 20260503223439 | 32 | 237 | 9.7 | 14.5 | 0.00 | 0.00 | 0.00 | 14 | 1008.7 |
| 20260503222934 | 32 | 302 | 17.7 | 22.5 | 0.00 | 0.00 | 0.00 | 13 | 1008.9 |
| 20260503222433 | 32 | 284 | 4.8 | 4.8 | 0.00 | 0.00 | 0.00 | 13 | 1008.6 |
| 20260503221931 | 33 | 244 | 8.0 | 9.7 | 0.00 | 0.00 | 0.00 | 13 | 1009.0 |
| 20260503221429 | 33 | 207 | 6.4 | 8.0 | 0.00 | 0.00 | 0.00 | 13 | 1008.8 |
| 20260503220926 | 33 | 172 | 3.2 | 4.8 | 0.00 | 0.00 | 0.00 | 13 | 1008.8 |
| 20260503220422 | 33 | 119 | 1.6 | 1.6 | 0.00 | 0.00 | 0.00 | 13 | 1008.9 |
| 20260503215919 | 32 | 204 | 4.8 | 8.0 | 0.00 | 0.00 | 0.00 | 13 | 1009.0 |
| 20260503215416 | 32 | 249 | 8.0 | 11.3 | 0.00 | 0.00 | 0.00 | 14 | 1008.7 |
| 20260503214914 | 32 | 239 | 4.8 | 8.0 | 0.00 | 0.00 | 0.00 | 14 | 1008.9 |
| 20260503214411 | 32 | 171 | 6.4 | 9.7 | 0.00 | 0.00 | 0.00 | 14 | 1009.3 |
| 20260503213908 | 32 | 99 | 1.6 | 1.6 | 0.00 | 0.00 | 0.00 | 18 | 1009.2 |
| 20260503213406 | 31 | 84 | 0.0 | 1.6 | 0.00 | 0.00 | 0.00 | 20 | 1009.3 |
| 20260503212902 | 31 | 150 | 3.2 | 3.2 | 0.00 | 0.00 | 0.00 | 20 | 1009.6 |
| 20260503212400 | 31 | 113 | 1.6 | 1.6 | 0.00 | 0.00 | 0.00 | 22 | 1009.6 |
| 20260503211857 | 32 | 17 | 4.8 | 8.0 | 0.00 | 0.00 | 0.00 | 21 | 1009.6 |
| 20260503211354 | 32 | 221 | 0.0 | 0.0 | 0.00 | 0.00 | 0.00 | 22 | 1009.8 |
| 20260503210849 | 31 | 209 | 3.2 | 4.8 | 0.00 | 0.00 | 0.00 | 22 | 1010.0 |
| 20260503210347 | 31 | 110 | 0.0 | 0.0 | 0.00 | 0.00 | 0.00 | 23 | 1010.0 |
| 20260503205841 | 31 | 107 | 1.6 | 1.6 | 0.00 | 0.00 | 0.00 | 23 | 1010.1 |
| 20260503205338 | 31 | 226 | 0.0 | 0.0 | 0.00 | 0.00 | 0.00 | 22 | 1009.9 |
| 20260503204834 | 31 | 102 | 1.6 | 1.6 | 0.00 | 0.00 | 0.00 | 22 | 1010.2 |
| 20260503204332 | 30 | 256 | 4.8 | 4.8 | 0.00 | 0.00 | 0.00 | 22 | 1010.3 |
| 20260503203829 | 31 | 147 | 4.8 | 4.8 | 0.00 | 0.00 | 0.00 | 22 | 1010.4 |
| 20260503203327 | 30 | 114 | 1.6 | 1.6 | 0.00 | 0.00 | 0.00 | 23 | 1010.2 |
| 20260503202823 | 30 | 75 | 3.2 | 3.2 | 0.00 | 0.00 | 0.00 | 23 | 1010.6 |
| 20260503202322 | 30 | 109 | 3.2 | 4.8 | 0.00 | 0.00 | 0.00 | 24 | 1010.4 |
| 20260503201820 | 30 | 79 | 3.2 | 3.2 | 0.00 | 0.00 | 0.00 | 23 | 1010.6 |
| 20260503201316 | 30 | 102 | 0.0 | 0.0 | 0.00 | 0.00 | 0.00 | 24 | 1010.6 |
| 20260503200814 | 30 | 79 | 6.4 | 9.7 | 0.00 | 0.00 | 0.00 | 23 | 1010.7 |
| 20260503200309 | 30 | 103 | 3.2 | 3.2 | 0.00 | 0.00 | 0.00 | 23 | 1010.6 |
| 20260503195807 | 30 | 18 | 4.8 | 4.8 | 0.00 | 0.00 | 0.00 | 23 | 1011.2 |
| 20260503195304 | 30 | 154 | 4.8 | 4.8 | 0.00 | 0.00 | 0.00 | 22 | 1011.2 |
| 20260503194801 | 30 | 105 | 4.8 | 4.8 | 0.00 | 0.00 | 0.00 | 21 | 1011.1 |
| 20260503194256 | 30 | 132 | 0.0 | 1.6 | 0.00 | 0.00 | 0.00 | 22 | 1011.3 |
| 20260503193753 | 30 | 157 | 3.2 | 3.2 | 0.00 | 0.00 | 0.00 | 22 | 1011.2 |
| 20260503193249 | 30 | 137 | 9.7 | 12.9 | 0.00 | 0.00 | 0.00 | 22 | 1011.3 |
| 20260503192745 | 30 | 210 | 3.2 | 4.8 | 0.00 | 0.00 | 0.00 | 23 | 1011.3 |
| 20260503192240 | 29 | 92 | 6.4 | 11.3 | 0.00 | 0.00 | 0.00 | 25 | 1011.2 |
| 20260503191737 | 29 | 83 | 6.4 | 8.0 | 0.00 | 0.00 | 0.00 | 25 | 1011.3 |
| 20260503191234 | 29 | 164 | 4.8 | 4.8 | 0.00 | 0.00 | 0.00 | 26 | 1011.6 |
| 20260503190731 | 29 | 111 | 6.4 | 8.0 | 0.00 | 0.00 | 0.00 | 26 | 1011.7 |
| 20260503190228 | 29 | 157 | 3.2 | 3.2 | 0.00 | 0.00 | 0.00 | 27 | 1011.6 |
| 20260503185725 | 28 | 138 | 6.4 | 8.0 | 0.00 | 0.00 | 0.00 | 27 | 1011.6 |
| 20260503185220 | 28 | 138 | 3.2 | 4.8 | 0.00 | 0.00 | 0.00 | 27 | 1011.8 |
| 20260503184715 | 28 | 146 | 3.2 | 3.2 | 0.00 | 0.00 | 0.00 | 27 | 1012.0 |
| 20260503184212 | 28 | 113 | 6.4 | 8.0 | 0.00 | 0.00 | 0.00 | 28 | 1012.4 |
| 20260503183708 | 28 | 139 | 4.8 | 4.8 | 0.00 | 0.00 | 0.00 | 28 | 1012.2 |
| 20260503183206 | 28 | 176 | 3.2 | 3.2 | 0.00 | 0.00 | 0.00 | 28 | 1012.5 |
| 20260503182704 | 28 | 135 | 6.4 | 9.7 | 0.00 | 0.00 | 0.00 | 28 | 1012.5 |
| 20260503182202 | 27 | 110 | 4.8 | 4.8 | 0.00 | 0.00 | 0.00 | 28 | 1012.4 |
| 20260503181658 | 27 | 122 | 8.0 | 9.7 | 0.00 | 0.00 | 0.00 | 28 | 1012.7 |
| 20260503181155 | 28 | 129 | 8.0 | 9.7 | 0.00 | 0.00 | 0.00 | 28 | 1012.6 |
| 20260503180652 | 27 | 151 | 4.8 | 4.8 | 0.00 | 0.00 | 0.00 | 28 | 1012.7 |
| 20260503180150 | 27 | 151 | 9.7 | 11.3 | 0.00 | 0.00 | 0.00 | 28 | 1012.8 |
| 20260503175647 | 27 | 146 | 3.2 | 4.8 | 0.00 | 0.00 | 0.00 | 29 | 1013.0 |
| 20260503175144 | 27 | 90 | 6.4 | 9.7 | 0.00 | 0.00 | 0.00 | 29 | 1012.8 |
| 20260503174640 | 27 | 143 | 4.8 | 4.8 | 0.00 | 0.00 | 0.00 | 29 | 1013.0 |
| 20260503174137 | 27 | 201 | 3.2 | 4.8 | 0.00 | 0.00 | 0.00 | 29 | 1013.0 |
| 20260503173633 | 27 | 195 | 4.8 | 4.8 | 0.00 | 0.00 | 0.00 | 29 | 1013.1 |
| 20260503173130 | 27 | 161 | 3.2 | 3.2 | 0.00 | 0.00 | 0.00 | 28 | 1012.9 |
| 20260503172626 | 27 | 193 | 3.2 | 3.2 | 0.00 | 0.00 | 0.00 | 28 | 1013.2 |
| 20260503172124 | 27 | 118 | 4.8 | 4.8 | 0.00 | 0.00 | 0.00 | 29 | 1013.0 |
| 20260503171620 | 27 | 127 | 3.2 | 3.2 | 0.00 | 0.00 | 0.00 | 29 | 1013.3 |
| 20260503171117 | 27 | 177 | 4.8 | 4.8 | 0.00 | 0.00 | 0.00 | 29 | 1013.1 |
| 20260503170614 | 27 | 112 | 4.8 | 4.8 | 0.00 | 0.00 | 0.00 | 29 | 1013.1 |
| 20260503170111 | 27 | 113 | 6.4 | 8.0 | 0.00 | 0.00 | 0.00 | 29 | 1013.1 |
| 20260503151006 | 24 | 107 | 0.0 | 0.0 | 0.00 | 0.00 | 0.00 | 35 | 1013.3 |
| 20260503150503 | 24 | 134 | 1.6 | 1.6 | 0.00 | 0.00 | 0.00 | 35 | 1013.3 |
| 20260503131355 | 21 | 90 | 1.6 | 1.6 | 0.00 | 0.00 | 0.00 | 39 | 1012.6 |
| 20260503130853 | 21 | 76 | 1.6 | 1.6 | 0.00 | 0.00 | 0.00 | 39 | 1012.6 |
| 20260503130350 | 21 | 86 | 0.0 | 0.0 | 0.00 | 0.00 | 0.00 | 39 | 1012.4 |
| 20260503110744 | 23 | 135 | 6.4 | 8.0 | 0.00 | 0.00 | 0.00 | 34 | 1011.9 |
| 20260503110241 | 23 | 100 | 1.6 | 1.6 | 0.00 | 0.00 | 0.00 | 34 | 1012.0 |
| 20260503100207 | 23 | 127 | 1.6 | 3.2 | 0.00 | 0.00 | 0.00 | 33 | 1012.2 |
| 20260503090132 | 23 | 126 | 4.8 | 4.8 | 0.00 | 0.00 | 0.00 | 33 | 1012.2 |
| 20260503081602 | 23 | 93 | 3.2 | 4.8 | 0.00 | 0.00 | 0.00 | 32 | 1012.2 |
| 20260503081059 | 23 | 106 | 1.6 | 3.2 | 0.00 | 0.00 | 0.00 | 31 | 1012.2 |
| 20260503080555 | 24 | 131 | 1.6 | 1.6 | 0.00 | 0.00 | 0.00 | 31 | 1012.5 |
| 20260503072529 | 24 | 109 | 4.8 | 8.0 | 0.00 | 0.00 | 0.00 | 30 | 1012.7 |
| 20260503072026 | 25 | 107 | 1.6 | 1.6 | 0.00 | 0.00 | 0.00 | 30 | 1012.6 |
| 20260503071523 | 25 | 146 | 1.6 | 1.6 | 0.00 | 0.00 | 0.00 | 29 | 1012.7 |
| 20260503071020 | 25 | 116 | 8.0 | 12.9 | 0.00 | 0.00 | 0.00 | 29 | 1012.7 |
| 20260503070516 | 25 | 154 | 4.8 | 11.3 | 0.00 | 0.00 | 0.00 | 29 | 1013.0 |
| 20260503054940 | 25 | 86 | 3.2 | 3.2 | 0.00 | 0.00 | 0.00 | 28 | 1011.7 |
| 20260503054436 | 25 | 87 | 3.2 | 4.8 | 0.00 | 0.00 | 0.00 | 28 | 1011.7 |
| 20260503053934 | 25 | 90 | 1.6 | 1.6 | 0.00 | 0.00 | 0.00 | 28 | 1011.7 |
| 20260503053431 | 25 | 97 | 4.8 | 8.0 | 0.00 | 0.00 | 0.00 | 28 | 1011.8 |
| 20260503052927 | 26 | 86 | 6.4 | 9.7 | 0.00 | 0.00 | 0.00 | 28 | 1011.7 |
| 20260503052425 | 26 | 109 | 8.0 | 11.3 | 0.00 | 0.00 | 0.00 | 28 | 1011.8 |
| 20260503051921 | 26 | 104 | 8.0 | 9.7 | 0.00 | 0.00 | 0.00 | 28 | 1011.7 |
| 20260503051417 | 26 | 67 | 4.8 | 8.0 | 0.00 | 0.00 | 0.00 | 28 | 1011.8 |
| 20260503050915 | 26 | 54 | 4.8 | 9.7 | 0.00 | 0.00 | 0.00 | 27 | 1011.8 |
| 20260503050410 | 26 | 88 | 8.0 | 11.3 | 0.00 | 0.00 | 0.00 | 27 | 1011.8 |
| 20260503045908 | 26 | 70 | 3.2 | 3.2 | 0.00 | 0.00 | 0.00 | 27 | 1011.7 |
| 20260503045405 | 26 | 79 | 8.0 | 11.3 | 0.00 | 0.00 | 0.00 | 27 | 1011.6 |
| 20260503044902 | 26 | 84 | 11.3 | 14.5 | 0.00 | 0.00 | 0.00 | 27 | 1011.6 |
| 20260503044359 | 26 | 50 | 9.7 | 11.3 | 0.00 | 0.00 | 0.00 | 27 | 1011.9 |
| 20260503043856 | 26 | 57 | 4.8 | 8.0 | 0.00 | 0.00 | 0.00 | 26 | 1011.6 |
| 20260503043353 | 26 | 72 | 8.0 | 11.3 | 0.00 | 0.00 | 0.00 | 26 | 1011.6 |
| 20260503042849 | 26 | 61 | 8.0 | 12.9 | 0.00 | 0.00 | 0.00 | 26 | 1011.5 |
| 20260503042346 | 26 | 78 | 8.0 | 12.9 | 0.00 | 0.00 | 0.00 | 26 | 1011.3 |
| 20260503041842 | 26 | 87 | 8.0 | 11.3 | 0.00 | 0.00 | 0.00 | 26 | 1011.3 |
| 20260503041339 | 26 | 92 | 8.0 | 9.7 | 0.00 | 0.00 | 0.00 | 26 | 1010.9 |